Wray Municipal Airport, CO

5:32 PM MDT on June 26, 2017 (GMT -0600)
Wray Municipal Airport

Weather History for K2V5 - March, 2014

Change the Weather History Date:

Monday, March 3, 2014

  Actual Average (KSYF) Record (KSYF)
Temperature  
Mean Temperature 36 °F -  
Max Temperature 65 °F 49 °F 70 °F (2013)
Min Temperature 6 °F 22 °F 4 °F (2014)
Degree Days  
Heating Degree Days 30    
Moisture  
Dew Point 21 °F    
Average Humidity 66    
Maximum Humidity 87    
Minimum Humidity 20    
Precipitation  
Precipitation 0.00 in - - ()
Sea Level Pressure  
Sea Level Pressure 30.01 in    
Wind  
Wind Speed 6 mph (South)    
Max Wind Speed 13 mph    
Max Gust Speed 20 mph    
Visibility 10 miles    
Events      
Averages and records for this station are not official NWS values.
T = Trace of Precipitation, MM = Missing Value Source: NWS Daily Summary

Daily Weather History Graph

Daily Weather History Graph

Search for Another Location

Airport or City:

Trip Planner

Search our weather history database for the weather conditions in past years. The results will help you decide how hot, cold, wet, or windy it might be!

Date:

Astronomy

Mar. 03, 2014 Rise Set
Actual Time 6:19 AM MST 5:43 PM MST
Civil Twilight 5:52 AM MST 6:10 PM MST
Nautical Twilight 5:20 AM MST 6:41 PM MST
Astronomical Twilight 4:49 AM MST 7:13 PM MST
Moon 7:28 AM MST (3/3) 8:48 PM MST (3/3)
Length of Visible Light 12h 18m
Length of Day
11h 23m
Waxing Crescent, 8% of the Moon is Illuminated
Mar 3
Waxing Crescent
Mar 8
First Quarter
Mar 16
Full
Mar 23
Last Quarter
Mar 30
New

Hourly Weather History & Observations

Time (MST) Temp. Windchill Dew Point Humidity Pressure Visibility Wind Dir Wind Speed Gust Speed Precip Events Conditions
12:15 AM 6.4 °F -6.3 °F 2.8 °F 85% 30.22 in 10.0 mi ESE 8.1 mph - N/A   Clear
12:35 AM 6.4 °F -7.3 °F 3.0 °F 86% 30.20 in 10.0 mi SE 9.2 mph - N/A   Clear
12:55 AM 6.8 °F -4.8 °F 3.2 °F 85% 30.20 in 10.0 mi SE 6.9 mph - N/A   Clear
1:15 AM 7.3 °F -2.8 °F 3.2 °F 83% 30.19 in 10.0 mi SSE 5.8 mph - N/A   Clear
1:35 AM 7.7 °F -3.7 °F 3.6 °F 83% 30.18 in 10.0 mi SSE 6.9 mph - N/A   Clear
1:55 AM 7.9 °F -2.2 °F 3.7 °F 83% 30.17 in 10.0 mi SSE 5.8 mph - N/A   Clear
2:15 AM 8.4 °F -3.9 °F 4.1 °F 83% 30.14 in 10.0 mi SSE 8.1 mph - N/A   Clear
2:35 AM 8.2 °F -1.8 °F 3.9 °F 83% 30.14 in 10.0 mi South 5.8 mph - N/A   Clear
2:55 AM 8.4 °F -1.6 °F 4.1 °F 83% 30.12 in 10.0 mi SSE 5.8 mph - N/A   Clear
3:15 AM 8.4 °F -3.9 °F 4.1 °F 83% 30.11 in 10.0 mi SSE 8.1 mph - N/A   Clear
3:35 AM 8.6 °F -3.7 °F 4.1 °F 82% 30.10 in 10.0 mi SSE 8.1 mph - N/A   Clear
3:55 AM 8.6 °F -2.6 °F 4.5 °F 83% 30.10 in 10.0 mi SE 6.9 mph - N/A   Clear
4:15 AM 9.0 °F -2.2 °F 4.8 °F 83% 30.09 in 10.0 mi SE 6.9 mph - N/A   Clear
4:35 AM 9.5 °F -3.5 °F 5.0 °F 82% 30.08 in 10.0 mi SE 9.2 mph - N/A   Clear
4:55 AM 10.0 °F 1.8 °F 5.7 °F 83% 30.08 in 10.0 mi ESE 4.6 mph - N/A   Clear
5:15 AM 10.2 °F -0.6 °F 5.9 °F 83% 30.07 in 10.0 mi SE 6.9 mph - N/A   Clear
5:35 AM 10.8 °F 1.2 °F 6.4 °F 83% 30.07 in 10.0 mi ESE 5.8 mph - N/A   Clear
5:55 AM 11.3 °F 5.1 °F 6.8 °F 82% 30.08 in 10.0 mi ESE 3.5 mph - N/A   Clear
6:15 AM 11.7 °F 5.5 °F 7.3 °F 83% 30.08 in 10.0 mi East 3.5 mph - N/A   Clear
6:35 AM 12.6 °F 2.2 °F 8.1 °F 82% 30.06 in 10.0 mi SE 6.9 mph - N/A   Clear
6:55 AM 13.1 °F 5.4 °F 8.6 °F 82% 30.06 in 10.0 mi SE 4.6 mph - N/A   Clear
7:15 AM 14.2 °F 6.7 °F 9.1 °F 80% 30.06 in 10.0 mi SE 4.6 mph - N/A   Clear
7:35 AM 15.3 °F 7.9 °F 10.2 °F 80% 30.06 in 10.0 mi SE 4.6 mph - N/A   Clear
7:55 AM 16.7 °F 8.3 °F 11.7 °F 81% 30.06 in 10.0 mi South 5.8 mph - N/A   Clear
8:15 AM 19.0 °F 13.9 °F 13.3 °F 78% 30.06 in 10.0 mi SSE 3.5 mph - N/A   Clear
8:35 AM 20.7 °F 15.8 °F 14.7 °F 78% 30.05 in 10.0 mi SSE 3.5 mph - N/A   Clear
8:55 AM 23.2 °F - 17.1 °F 77% 30.05 in 10.0 mi Calm Calm - N/A   Clear
9:15 AM 24.4 °F - 18.1 °F 77% 30.05 in 10.0 mi Calm Calm - N/A   Clear
9:35 AM 27.3 °F 22.0 °F 20.3 °F 75% 30.04 in 10.0 mi ESE 4.6 mph - N/A   Scattered Clouds
9:55 AM 28.8 °F - 21.4 °F 74% 30.04 in 10.0 mi Calm Calm - N/A   Mostly Cloudy
10:15 AM 31.3 °F 23.9 °F 24.4 °F 76% 30.02 in 10.0 mi SE 8.1 mph - N/A   Overcast
10:35 AM 34.2 °F 30.0 °F 27.0 °F 75% 30.02 in 10.0 mi SE 4.6 mph - N/A   Mostly Cloudy
10:55 AM 37.4 °F 32.1 °F 29.1 °F 72% 30.01 in 10.0 mi SSE 6.9 mph - N/A   Overcast
11:15 AM 39.4 °F - 30.7 °F 71% 30.01 in 10.0 mi Calm Calm - N/A   Scattered Clouds
11:35 AM 43.5 °F 40.1 °F 33.1 °F 67% 29.99 in 10.0 mi ESE 5.8 mph - N/A   Scattered Clouds
11:55 AM 48.9 °F - 36.5 °F 62% 29.97 in 10.0 mi SSE 6.9 mph - N/A   Scattered Clouds
12:15 PM 52.9 °F - 37.9 °F 57% 29.96 in 10.0 mi SSE 4.6 mph - N/A   Clear
12:35 PM 58.3 °F - 36.5 °F 44% 29.95 in 10.0 mi South 5.8 mph - N/A   Clear
12:55 PM 59.9 °F - 33.3 °F 37% 29.94 in 10.0 mi SW 6.9 mph - N/A   Clear
1:15 PM 60.3 °F - 33.3 °F 36% 29.93 in 10.0 mi West 5.8 mph - N/A   Clear
1:35 PM 61.5 °F - 34.2 °F 36% 29.92 in 10.0 mi West 6.9 mph - N/A   Clear
1:55 PM 62.1 °F - 32.7 °F 33% 29.92 in 10.0 mi Calm Calm - N/A   Clear
2:15 PM 63.1 °F - 32.0 °F 31% 29.91 in 10.0 mi Calm Calm - N/A   Clear
2:35 PM 63.9 °F - 31.8 °F 30% 29.91 in 10.0 mi WNW 3.5 mph - N/A   Clear
2:55 PM 63.5 °F - 29.1 °F 27% 29.91 in 10.0 mi WNW 3.5 mph - N/A   Clear
3:15 PM 64.9 °F - 26.8 °F 24% 29.91 in 10.0 mi North - - N/A   Mostly Cloudy
3:35 PM 65.7 °F - 22.8 °F 20% 29.90 in 10.0 mi NW 12.7 mph - N/A   Mostly Cloudy
3:55 PM 64.9 °F - 22.3 °F 20% 29.90 in 10.0 mi WNW 12.7 mph 19.6 mph N/A   Scattered Clouds
4:15 PM 63.5 °F - 23.5 °F 22% 29.91 in 10.0 mi NW 12.7 mph - N/A   Clear
4:35 PM 62.4 °F - 24.4 °F 24% 29.91 in 10.0 mi NW 10.4 mph - N/A   Clear
4:55 PM 60.6 °F - 25.3 °F 26% 29.91 in 10.0 mi NW 6.9 mph - N/A   Clear
5:15 PM 57.0 °F - 26.2 °F 31% 29.92 in 10.0 mi NNW 5.8 mph - N/A   Clear
5:35 PM 52.2 °F - 27.0 °F 38% 29.92 in 10.0 mi North 9.2 mph - N/A   Clear
5:55 PM 47.3 °F - 28.8 °F 49% 29.93 in 10.0 mi North 10.4 mph - N/A   Clear
6:15 PM 44.1 °F 38.6 °F 29.7 °F 57% 29.94 in 10.0 mi North 10.4 mph - N/A   Clear
6:35 PM 42.8 °F 37.0 °F 30.0 °F 61% 29.94 in 10.0 mi North 10.4 mph - N/A   Clear
6:55 PM 41.7 °F 37.3 °F 30.7 °F 65% 29.94 in 10.0 mi North 6.9 mph - N/A   Clear
7:15 PM 37.2 °F - 29.8 °F 75% 29.94 in 10.0 mi Calm Calm - N/A   Clear
7:35 PM 41.9 °F - 30.7 °F 65% 29.94 in 10.0 mi Calm Calm - N/A   Clear
7:55 PM 43.5 °F - 30.6 °F 60% 29.94 in 10.0 mi Calm Calm - N/A   Clear
8:15 PM 41.9 °F - 30.7 °F 65% 29.94 in 10.0 mi Calm Calm - N/A   Clear
8:35 PM 40.8 °F - 30.6 °F 67% 29.94 in 10.0 mi Calm Calm - N/A   Clear
8:55 PM 32.2 °F 26.7 °F 28.8 °F 87% 29.95 in 10.0 mi SW 5.8 mph - N/A   Clear
9:15 PM 36.7 °F 34.1 °F 29.8 °F 76% 29.95 in 10.0 mi SW 3.5 mph - N/A   Clear
9:35 PM 33.4 °F 29.1 °F 29.1 °F 84% 29.95 in 10.0 mi SW 4.6 mph - N/A   Clear
9:55 PM 33.6 °F 28.4 °F 28.9 °F 83% 29.94 in 10.0 mi WSW 5.8 mph - N/A   Clear
10:15 PM 33.8 °F 27.7 °F 29.5 °F 84% 29.94 in 10.0 mi West 6.9 mph - N/A   Clear
10:35 PM 36.0 °F 30.3 °F 29.7 °F 78% 29.94 in 10.0 mi WSW 6.9 mph - N/A   Clear
10:55 PM 35.6 °F 29.9 °F 28.8 °F 76% 29.94 in 10.0 mi WSW 6.9 mph - N/A   Clear
11:15 PM 35.6 °F 29.9 °F 28.4 °F 75% 29.93 in 10.0 mi West 6.9 mph - N/A   Clear
11:35 PM 34.3 °F 30.2 °F 28.2 °F 78% 29.92 in 10.0 mi West 4.6 mph - N/A   Clear
11:55 PM 35.1 °F 30.1 °F 28.0 °F 76% 29.92 in 10.0 mi West 5.8 mph - N/A   Clear